{"data":{"norad_id":59778,"intl_designator":"2024-092F","name":"2024-092F","alt_names":[],"object_type":"PAYLOAD","status":"ACTIVE","operator":null,"country":"CIS","launch_date":"2024-05-16","launch_site_code":"PLMSC","launch_vehicle":null,"mission":null,"orbit_class":"UNKNOWN","rcs_meters":null,"size_class":null,"mass_kg":null,"dimensions":null,"purposes":[],"wikipedia_slug":null,"has_3d_model":false,"image_url":null,"decayed_at":null,"tle_current":{"epoch":"2026-05-24T21:49:21.671040Z","epoch_age_seconds":96942,"freshness":"FRESH","line1":"1 59778U 24092F   26144.90927860  .00017822  00000+0  49995-3 0  9999","line2":"2 59778  97.6539 277.3031 0007138 223.8680 136.1997 15.36616898112191","mean_motion":15.36616898,"eccentricity":0.0007138,"inclination_deg":97.6539,"raan_deg":277.3031,"arg_perigee_deg":223.868,"mean_anomaly_deg":136.1997,"bstar":0.00049995,"rev_number":11219,"period_min":93.712362650329,"perigee_km":451.24378110905,"apogee_km":461.00036936486,"semimajor_km":6834.259075237,"source":"CELESTRAK","updated_at":"2026-05-25T13:38:01.675466Z"}}}